Location: Geldersheim
(50.0426°N, 10.1565°E)
Time: 22:33:33
(UTC+00:00)

Daily predictions for brighter satellites

Satellite Brightness Start Highest point End
(mag) Time Altitude Azimuth Time Altitude Azimuth Time Altitude Azimuth
Cosmos 1980 3.9 20:03:13 10° NNW 20:08:54 75° WSW 20:14:31 10° SSE
Okean O Rocket 2.4 20:09:23 10° S 20:13:33 49° W 20:17:45 10° NNW
Spot 2 Rocket 3.5 20:09:09 10° SSE 20:14:12 80° ENE 20:19:19 10° NNW
Cosmos 1151 Rocket 4.2 20:12:02 10° SSW 20:16:07 46° WNW 20:20:16 10° N
Helios 1B rocket 3.8 20:15:01 10° SSW 20:18:19 31° W 20:21:38 10° NNW
USA 238 DEB 4.3 20:15:00 10° NW 20:22:16 63° SW 20:30:06 10° SSE
USA 238 4.3 20:15:05 10° NW 20:22:22 63° SW 20:30:13 10° SSE
ERS-1 Rocket 3.7 20:19:35 10° S 20:24:29 53° W 20:29:24 10° NNW
Cosmos 1437 Rocket 3.8 20:21:40 10° SSE 20:24:33 24° E 20:27:28 10° NE
Cosmos 921 Rocket 3.2 20:20:32 10° S 20:24:39 52° ESE 20:28:53 10° NNE
Cosmos 2219 4.5 20:21:33 10° SSE 20:25:53 22° E 20:30:13 10° NE
SL-14 R/B 3.2 20:28:51 10° S 20:32:44 71° E 20:36:40 10° NNE
Cosmos 2123 Rocket 4.4 20:27:48 10° SSE 20:33:45 48° E 20:39:42 10° NNE
SL-8 R/B 3.7 20:34:46 10° W 20:39:31 68° S 20:44:16 10° ESE
In-Cosmos 22 4.4 20:35:21 10° SSW 20:41:05 79° WNW 20:46:45 10° N
Cosmos 2237 Rocket 3.0 20:37:11 10° NW 20:42:36 46° WSW 20:47:59 10° S
USA 290 4.3 20:41:32 11° ESE 20:42:42 13° E 20:44:12 10° ENE
Cosmos 1459 Rocket 4.1 20:36:25 10° N 20:42:47 83° E 20:49:09 10° S
Cosmos 1802 Rocket 4.2 20:41:15 10° N 20:47:42 71° ENE 20:53:56 11° SSE
Meteor 1-15 Rocket 4.3 20:42:03 10° N 20:47:43 76° ENE 20:53:03 11° SSE
SL-4 R/B 3.7 20:47:40 13° SSE 20:48:48 14° SE 20:50:54 10° ESE
Meteor 2-10 Rocket 4.5 20:43:56 10° NNW 20:49:28 51° W 20:54:48 10° S
USA 305 2.5 20:47:57 10° SW 20:51:45 51° SSE 20:54:59 10° ENE
Cosmos 1953 3.3 20:50:05 10° N 20:53:26 30° ENE 20:56:11 13° SE
Okean-O 4.5 20:52:42 10° SSW 20:56:23 26° W 21:00:05 10° NW
Cosmos 1633 Rocket 4.2 20:55:26 10° NNW 20:59:29 40° W 21:03:30 10° SSW
Meteor 1-22 Rocket 4.3 20:54:29 10° NNW 20:59:49 75° W 21:05:14 10° S
Lacrosse 4 Rocket 1.7 20:56:29 10° NW 21:00:39 59° WSW 21:04:06 14° SSE
NOSS 3-4 (A) 3.7 20:57:34 10° SW 21:02:57 68° NW 21:08:59 10° NE
NOSS 3-4 (C) 3.6 20:57:40 10° SW 21:03:03 68° NW 21:09:05 10° NE
DNEPR-1 R/B 4.4 20:59:36 10° SSW 21:05:18 45° ESE 21:10:04 10° NE
Cosmos 1818 3.6 21:00:32 10° SW 21:05:59 90° SE 21:11:30 10° NE
Cosmos 2016 Rocket 4.1 21:00:31 10° N 21:06:54 81° E 21:12:39 13° SSE
Cosmos 1455 3.9 21:08:36 10° NW 21:10:27 17° W 21:12:19 10° SW
Meteor 2-21 4.5 21:05:12 10° S 21:11:20 72° E 21:17:27 10° NNE
Ariane Rocket 3.6 21:09:58 10° S 21:14:56 53° W 21:19:55 10° NNW
Cosmos 2297 Rocket 3.5 21:10:15 10° SW 21:15:39 44° NW 21:21:06 10° NNE
USA 59 Rocket 2.2 21:14:04 10° NNW 21:16:05 15° NNE 21:18:20 10° ENE
CZ-4C R/B 4.4 21:14:45 10° NE 21:17:15 20° E 21:18:25 17° ESE
SPOT 3 Rocket 4.4 21:14:48 10° S 21:19:43 46° W 21:24:41 10° NNW
GP-B 3.1 21:16:19 10° N 21:20:42 66° E 21:24:00 17° S
Cosmos 1269 Rocket 4.2 21:20:32 12° S 21:25:13 54° ESE 21:30:22 10° NNE
Cosmos 2084 Rocket 4.0 21:22:33 10° NW 21:26:31 44° SW 21:29:07 19° S
Meteor 1-12 Rocket 4.4 21:20:48 10° NNW 21:26:44 88° WSW 21:31:34 16° S
ATLAS CENTAUR R/B 2.8 21:25:42 10° WNW 21:28:45 23° WSW 21:31:05 13° SSW
Cosmos 489 Rocket 4.5 21:23:58 10° NNW 21:30:13 84° WSW 21:35:02 18° SSE
Cosmos 1933 Rocket 3.9 21:26:53 10° NNW 21:31:14 60° W 21:34:40 15° S
SL-16 R/B 2.6 21:31:56 10° NW 21:37:29 56° WSW 21:41:38 18° S
NOSS 3 (A) 4.4 21:35:46 10° NW 21:38:14 63° SW 21:39:34 28° SSE
Terra 4.3 21:36:56 10° WSW 21:39:12 13° W 21:41:29 10° WNW
ALOS 2 4.2 21:37:03 12° ESE 21:40:11 26° ENE 21:43:49 10° N
Meteor 1-23 Rocket 4.4 21:35:52 10° SSW 21:41:25 72° WNW 21:47:03 10° N
Cosmos 2344 4.1 21:33:50 10° NW 21:41:42 76° NE 21:52:06 11° SE
DELTA 2 DEB (DPAF) 3.7 21:37:49 10° NNE 21:41:45 77° ESE 21:44:30 19° S
Cosmos 1733 Rocket 3.5 21:38:07 10° N 21:42:23 49° ENE 21:45:01 21° SE
Cosmos 2227 Rocket 3.0 21:38:36 10° SW 21:44:07 53° NW 21:49:41 10° NNE
Cosmos 2233 Rocket 4.1 21:38:15 10° NNW 21:44:35 77° W 21:49:37 17° S
RESURS DK-1 2.9 21:41:11 10° SW 21:45:08 57° NW 21:49:07 10° NNE
Cosmos 1869 Rocket 3.8 21:41:11 10° NNW 21:45:33 65° W 21:48:34 19° S
Meteor 1-21 4.3 21:42:07 11° SSW 21:47:34 80° WNW 21:53:23 10° N
Meteor 1-16 Rocket 4.4 21:42:05 10° NNW 21:47:51 75° W 21:52:16 18° S
Cosmos 2263 Rocket 2.2 21:42:52 10° SSW 21:48:34 86° WNW 21:54:18 10° NNE
Okean 2 3.2 21:50:02 24° S 21:52:17 67° E 21:56:11 10° NNE
Okean 3 3.4 21:50:57 23° S 21:53:25 69° E 21:57:30 10° NNE
CZ-2C R/B 4.1 21:49:07 10° NNE 21:53:30 46° E 21:56:00 23° SSE
IRIDIUM 106 4.4 21:51:50 21° SSE 21:55:21 69° E 22:00:33 10° N
Aureole 3 Rocket 3.5 21:52:43 10° N 21:55:38 33° ENE 21:57:14 22° SE
Cosmos 1943 3.2 21:53:25 10° NNW 21:59:10 84° ENE 22:03:04 21° SSE
ASTEX 1 3.5 21:54:24 10° NNE 21:59:21 62° E 22:02:22 23° SSE
Cosmos 1437 Rocket 4.5 21:56:31 10° SW 21:59:33 26° WNW 22:02:39 10° N
SeaSat 1 3.9 21:58:24 10° ESE 22:02:41 31° NE 22:07:00 10° NNW
Cosmos 2346 Rocket 4.5 21:59:10 18° S 22:03:58 82° E 22:10:12 10° N
Geosat 4.4 22:03:01 10° NNE 22:07:59 62° NW 22:12:54 10° SW
Cosmos 1763 Rocket 3.6 22:03:59 10° NNW 22:09:09 71° ENE 22:12:23 23° SE
Cosmos 2219 3.5 22:03:43 10° SW 22:09:27 72° WNW 22:15:14 10° NNE
MetOp-A 3.7 22:10:28 25° SSE 22:13:20 89° W 22:17:52 10° NNW
Cosmos 1862 Rocket 3.6 22:11:30 26° S 22:13:55 68° E 22:18:19 10° NNE
Cosmos 1603 3.9 22:11:04 10° NNW 22:16:41 65° ENE 22:20:41 19° SE
USA 290 3.2 22:14:12 14° SW 22:16:41 45° WNW 22:19:47 10° NNE
Cosmos 1271 Rocket 3.9 22:16:29 22° ESE 22:17:31 25° E 22:20:32 10° NE
Cosmos 2082 3.8 22:13:11 10° SSW 22:18:54 78° WNW 22:24:41 10° NNE
Cosmos 2292 Rocket 2.7 22:18:12 33° SSW 22:19:20 69° W 22:22:14 10° N
USA 305 3.1 22:16:50 10° W 22:20:23 48° NNW 22:23:11 10° ENE
SL-8 R/B 4.5 22:17:13 10° W 22:21:27 32° SSW 22:22:53 27° S
Okean 1-7 3.2 22:19:41 29° SSE 22:21:33 54° E 22:25:36 10° NNE
SWAS 4.3 22:18:50 10° NW 22:22:54 70° WSW 22:24:44 31° SSE
ARIANE 5 R/B 2.7 22:20:49 27° S 22:23:13 76° WSW 22:27:43 10° NNW
SL-4 R/B 2.0 22:22:09 10° SW 22:26:09 51° SSE 22:30:02 10° ENE
Cosmos 1953 4.0 22:25:32 10° NW 22:28:34 23° W 22:30:44 14° SW
Cosmos 1140 Rocket 3.8 22:26:49 12° SW 22:31:28 64° WNW 22:36:35 10° NNE
Spot 4 3.8 22:30:33 27° SSE 22:33:13 84° WSW 22:38:06 10° NNW
NOSS 2-1 (C) 4.2 22:31:43 10° NNW 22:34:54 41° NE 22:38:47 11° ESE
PSLV R/B 4.2 22:32:33 10° NNE 22:36:39 41° E 22:38:27 27° SSE
Cosmos 1703 3.5 22:34:57 25° SW 22:36:41 52° WNW 22:40:06 10° N
Cosmos 2227 4.2 22:33:33 23° SSW 22:37:09 68° ESE 22:42:44 10° NNE
NOSS 3-1 (C) 4.1 22:30:06 10° NW 22:37:10 70° SW 22:43:28 20° SSE
NOSS 2-1 (E) 4.3 22:35:16 10° NNW 22:38:29 40° NE 22:42:34 10° ESE
SJ 16-02 3.0 22:38:57 17° ESE 22:40:14 19° E 22:43:19 10° NE
Cosmos 1072 Rocket 4.4 22:35:17 10° N 22:41:29 83° W 22:45:16 25° S
Cosmos 1892 2.7 22:43:00 31° SW 22:44:03 48° WNW 22:46:59 10° N
USA 307 3.1 22:54:11 35° SSE 22:54:22 36° SE 22:58:01 10° ENE
Cosmos 407 Rocket 3.6 22:50:55 19° SW 22:54:38 71° WNW 22:59:45 10° NNE
Cosmos 2228 Rocket 3.7 22:54:32 21° SW 22:57:17 50° WNW 23:01:37 10° N
Cosmos 1844 Rocket 2.7 22:54:47 24° SSW 22:58:19 75° ESE 23:04:00 10° NNE
USA 234 4.1 22:55:33 10° ENE 23:01:16 31° SE 23:03:50 24° SSE
Cosmos 1703 Rocket 3.6 22:59:24 32° S 23:01:16 68° E 23:05:34 10° NNE
Cosmos 1782 Rocket 4.0 22:57:17 10° N 23:01:37 53° ENE 23:03:54 26° SE
Cosmos 2251 Rocket 3.5 22:59:04 24° SSW 23:02:23 89° ESE 23:07:47 10° NNE
OPS 6432 4.1 22:59:15 10° NW 23:02:34 88° WSW 23:03:35 41° SE
Cosmos 1844 3.6 22:59:50 25° SSW 23:03:08 72° ESE 23:08:41 10° NNE
Cosmos 1816 Rocket 4.5 22:59:37 24° S 23:03:33 89° E 23:09:55 10° N
USA 59 Rocket -0.2 23:02:00 10° NW 23:05:27 77° NE 23:08:26 20° SE
Landsat 5 4.1 23:03:18 10° N 23:07:28 51° WNW 23:09:56 22° SW
Cosmos 1954 Rocket 4.0 23:07:46 28° S 23:10:30 67° ESE 23:15:40 10° NNE
ATLAS 3B R/B 3.8 23:04:05 10° NW 23:11:49 52° NE 23:19:19 10° ESE
Cosmos 540 Rocket 4.0 23:07:18 10° NW 23:12:10 45° WSW 23:14:32 27° SSW
Cosmos 1190 Rocket 4.0 23:12:31 25° SSW 23:15:39 89° ESE 23:20:59 10° NNE
Tsikada Rocket 4.1 23:12:12 25° S 23:15:53 67° E 23:22:07 10° NNE
ALOS 2 3.3 23:14:27 27° SSW 23:16:20 41° W 23:20:31 10° NNW
Meteor 1-24 Rocket 3.9 23:13:40 26° S 23:17:09 72° E 23:23:03 10° NNE
Cosmos 1606 3.3 23:19:31 10° N 23:22:22 35° ENE 23:23:21 27° ESE
Cosmos 468 Rocket 4.3 23:18:03 10° NNW 23:23:02 50° WSW 23:25:26 28° SSW
Cosmos 841 Rocket 3.5 23:19:06 10° NNW 23:24:24 87° ENE 23:27:33 25° SSE
NOSS 3-1 (A) 4.0 23:18:26 10° NW 23:25:31 70° SW 23:32:25 17° SSE
Cosmos 2279 Rocket 4.5 23:19:58 10° N 23:26:03 54° ENE 23:30:32 18° SSE
ATLAS 2AS CENTAUR R/B 3.0 23:25:06 24° S 23:29:18 53° ESE 23:36:01 10° NE
BREEZE-M DEB (TANK) 3.9 23:28:12 27° S 23:29:31 30° SSE 23:32:24 10° E
Meteor 2-5 Rocket 3.8 23:27:46 26° S 23:31:17 84° E 23:37:16 10° NNE
Cosmos 2263 Rocket 4.4 23:28:55 10° W 23:33:19 22° NW 23:37:44 10° NNE
H-2A R/B 3.5 23:31:18 17° ESE 23:33:34 32° ENE 23:36:51 10° N
Meteor 2-17 Rocket 4.4 23:30:04 26° S 23:33:43 89° W 23:39:49 10° N
Cosmos 2242 Rocket 4.4 23:31:50 24° SE 23:33:58 41° E 23:38:09 10° NNE
Cosmos 2034 Rocket 4.3 23:28:12 10° NNW 23:34:15 56° W 23:37:59 24° SSW
Cosmos 1833 Rocket 3.2 23:33:08 10° NNW 23:38:41 56° NE 23:44:08 10° SE
SeaSat 1 2.7 23:37:33 29° S 23:39:53 54° WSW 23:44:42 10° NW
USA 305 3.8 23:46:28 10° WNW 23:49:15 29° N 23:51:18 10° ENE
Cosmos 1271 Rocket 4.2 23:50:19 18° WSW 23:52:09 26° WNW 23:55:16 10° N
CZ-2C R/B 3.8 23:49:15 10° NNE 23:54:29 43° E 23:57:35 21° SSE
